Weather History for MMEP - November, 2012

Change the Weather History Date:

Saturday, November 10, 2012

  Actual Average Record
Temperature  
Mean Temperature 72 °F -  
Max Temperature 83 °F 82 °F 89 °F (2003)
Min Temperature 61 °F 54 °F 46 °F (1996)
Cooling Degree Days 7    
Growing Degree Days 22 (Base 50)    
Moisture  
Dew Point 59 °F    
Average Humidity 61    
Maximum Humidity 100    
Minimum Humidity 36    
Precipitation  
Precipitation 0.00 in - - ()
Sea Level Pressure  
Sea Level Pressure 29.98 in    
Wind  
Wind Speed 2 mph ()    
Max Wind Speed 7 mph    
Max Gust Speed -    
Visibility 8.4 miles    
Events      
Averages and records for this station are not official NWS values.
T = Trace of Precipitation, MM = Missing Value Source: Averaged Metar Reports

Daily Weather History Graph

Daily Weather History Graph

Search for Another Location

Airport or City:

Trip Planner

Search our weather history database for the weather conditions in past years. The results will help you decide how hot, cold, wet, or windy it might be!

Date:

Astronomy

Nov. 10, 2012 Rise Set
Actual Time 6:07 AM MST 5:18 PM MST
Civil Twilight 5:44 AM MST 5:42 PM MST
Nautical Twilight 5:17 AM MST 6:08 PM MST
Astronomical Twilight 4:51 AM MST 6:35 PM MST
Moon 2:39 AM MST (11/10) 2:47 PM MST (11/10)
Length of Visible Light 11h 57m
Length of Day
11h 11m
Waning Crescent, 14% of the Moon is Illuminated
Nov 10
Waning Crescent
Nov 13
New
Nov 20
First Quarter
Nov 28
Full
Dec 6
Last Quarter

Hourly Weather History & Observations

Time (MST) Temp. Heat Index Dew Point Humidity Pressure Visibility Wind Dir Wind Speed Gust Speed Precip Events Conditions
1:33 AM 64 °F - 56 °F 69% 29.87 in 6 mi South 4.5 mph - -  
4:34 AM 62 °F - 55 °F 70% 29.88 in 6 mi Calm Calm - -  
6:05 AM 53.6 °F - 53.6 °F 100% 30.10 in 6.0 mi Calm Calm - N/A   Mostly Cloudy
7:34 AM 62 °F - 55 °F 70% 29.91 in 12 mi NE 2.2 mph - -   Mostly Cloudy
7:45 AM 60.8 °F - 55.4 °F 82% 30.03 in 6.0 mi Calm Calm - N/A   Overcast
8:50 AM 68.0 °F - 57.2 °F 68% 30.14 in 8.0 mi Calm Calm - N/A   Mostly Cloudy
9:47 AM 77.0 °F - 59.0 °F 54% 30.14 in 8.0 mi Calm Calm - N/A   Overcast
10:34 AM 81 °F - 59 °F 36% 29.92 in 12 mi NW 4.5 mph - -   Partly Cloudy
10:52 AM 78.8 °F - 57.2 °F 47% 30.01 in 10.0 mi West 4.6 mph - N/A   Overcast
11:51 AM 82.4 °F 81.7 °F 55.4 °F 39% 30.10 in 10.0 mi Calm Calm - N/A   Mostly Cloudy
1:03 PM 84.2 °F 83.5 °F 57.2 °F 40% 30.07 in 10.0 mi WNW 4.6 mph - N/A   Mostly Cloudy
1:33 PM 83 °F - 64 °F 43% 29.86 in 12 mi NW 6.7 mph - -   Scattered Clouds
1:51 PM 82.4 °F 83.4 °F 62.6 °F 51% 29.92 in 8.0 mi NNW 6.9 mph - N/A   Overcast
3:49 PM 82.4 °F 81.7 °F 55.4 °F 39% 30.04 in 8.0 mi NNE 4.6 mph - N/A   Overcast
4:35 PM 80 °F - 65 °F 52% 29.81 in 12 mi NW 4.5 mph - -   Scattered Clouds
4:47 PM 77.0 °F - 60.8 °F 57% 29.92 in 8.0 mi North 5.8 mph - N/A   Overcast
5:53 PM 71.6 °F - 64.4 °F 78% 30.04 in 6.0 mi NNE 5.8 mph - N/A   Scattered Clouds
7:35 PM 71 °F - 67 °F 82% 29.92 in 6 mi NW 4.5 mph - -   Scattered Clouds
10:30 PM 67 °F - 65 °F 89% 29.91 in 6 mi Calm Calm - -